User: anonymous   Login
Location: Unspecified
(64.9000°N, 0.0000°E)
Time: 12:29:34
(UTC+00:00)
Language:

Altair - Orbit

View from above orbital plane
View from above orbital plane
View from above satellite
View from above satellite

Ground track
Ground track

The orbit data is extracted from the following two-line orbital elements,

1    50U 60009B   19289.49485721 -.00000088  00000-0 -27257-4 0  9994
2    50  47.2304 161.5375 0113777 315.8388  43.3362 12.20109264640768
Epoch (UTC): 16 October 2019 11:52:35
Eccentricity: 0.0113777
inclination: 47.2304°
perigee height: 1501 km
apogee height: 1683 km
right ascension of ascending node: 161.5375°
argument of perigee: 315.8388°
revolutions per day: 12.20109264
mean anomaly at epoch: 43.3362°
orbit number at epoch: 64076

The dashed part of the orbit path shows where the satellite is in the earth's shadow,  

DLR